Wind_Speed
24 24 23 22 21 20 19 15 17 15 12 15 16 11 10 11 12 11 10 12 11 13 13 16 19 21 19 21 21 20 23 22 13 11 17 19 22 28 22 15 10 11 9
22 22 22 22 23 22 21 19 18 15 14 15 15 14 11 13 13 12 13 14 14 12 13 15 15 14 15 18 20 21 22 20 24 19 18 21 24 20 15 20 11 11 12
18 21 23 23 22 22 22 20 19 18 17 16 15 13 13 13 13 14 15 16 15 14 16 18 16 17 15 16 17 18 17 18 17 15 13 14 16 17 19 18 17 13 13
19 18 20 24 22 21 21 20 17 18 18 16 15 16 15 14 14 15 14 15 16 16 18 19 19 18 18 17 14 17 17 19 18 16 15 14 16 20 14 15 19 16 16
23 20 19 16 19 22 23 22 22 18 18 18 18 18 17 18 17 17 16 17 18 19 19 18 17 16 16 17 16 18 17 18 20 19 18 18 18 19 23 20 18 27 19
29 25 23 20 19 21 21 20 20 19 18 18 19 18 18 20 21 20 17 18 20 19 19 19 20 19 18 18 19 20 20 20 21 22 22 22 21 22 22 20 23 24 21
19 27 31 21 21 21 21 20 19 18 18 17 17 18 19 18 20 21 22 24 24 24 23 22 23 23 23 24 23 24 24 24 24 24 25 26 24 23 25 27 25 23 21
29 31 29 26 25 23 24 23 23 22 22 22 23 22 23 22 23 22 22 25 27 27 28 28 27 25 25 28 27 28 26 26 28 27 28 28 26 26 26 28 28 24 21
40 38 34 36 33 32 31 30 30 28 29 28 27 26 28 29 26 25 23 29 30 28 30 32 30 28 26 28 28 30 27 28 29 31 31 31 29 29 30 31 28 26 26
16 34 43 38 41 41 37 35 35 33 31 32 32 30 31 32 32 34 33 34 37 33 33 32 33 33 31 32 33 34 32 32 33 34 35 34 35 34 33 34 26 24 23
7 8 27 34 44 43 36 37 40 33 34 29 33 37 39 40 41 36 36 36 37 36 36 37 32 32 34 36 36 38 38 39 41 41 39 37 37 38 35 28 23 24 28
15 18 15 35 28 32 31 43 33 27 17 21 24 30 32 36 35 40 38 36 39 40 39 36 36 39 38 36 38 39 36 39 42 42 40 38 35 32 27 27 24 22 25
11 7 3 10 12 23 25 23 12 34 36 21 26 25 28 26 28 32 28 30 34 34 35 34 29 29 33 31 25 21 20 18 13 9 10 11 13 13 17 15 20 25 21
6 8 12 11 4 6 6 8 10 16 19 19 21 20 23 21 16 20 17 18 21 24 27 27 29 31 19 14 18 18 19 22 16 14 15 17 19 24 23 23 24 23 23
7 7 7 6 6 8 10 11 10 11 12 10 10 10 12 9 8 7 8 6 4 6 8 13 12 11 12 15 18 20 17 16 19 19 24 21 25 27 19 22 24 20 17
7 7 8 7 6 7 7 9 10 9 10 12 11 8 11 8 9 10 12 15 11 11 13 13 14 17 19 21 20 22 15 19 19 24 22 27 23 24 23 20 17 14 16
7 8 8 7 9 10 11 11 13 15 17 17 15 15 12 10 7 12 17 16 16 20 22 23 23 15 14 15 18 22 21 19 18 17 19 19 21 17 20 17 18 18 17
12 12 12 11 10 10 11 13 14 14 14 14 13 12 14 17 17 16 16 13 14 14 12 14 19 20 17 19 19 21 16 22 22 19 19 20 20 14 13 13 16 19 15
4 5 6 6 7 8 9 10 12 14 15 15 15 14 14 16 14 15 15 12 13 14 13 15 18 19 19 17 17 18 18 17 15 13 11 9 7 10 13 11 12 13 14
8 7 7 8 8 9 9 8 9 10 11 12 11 11 11 10 9 9 10 10 11 12 13 13 13 12 12 13 12 12 10 9 9 9 8 8 11 13 13 14 15 17 19
5 5 7 8 8 8 9 9 9 10 11 12 11 9 11 11 11 11 11 11 12 10 9 8 8 9 9 8 9 10 10 10 11 13 13 13 13 15 16 17 17 21 20
6 6 6 4 11 9 8 9 11 11 10 11 10 10 10 12 12 10 10 11 11 13 11 11 11 11 12 13 13 13 13 13 12 13 13 13 14 16 17 19 21 20 19
8 8 10 9 11 15 12 10 9 9 10 12 12 8 10 12 13 12 12 12 12 13 14 13 15 15 15 16 16 16 16 17 15 16 18 19 19 19 20 20 20 20 19
11 9 13 10 13 12 13 12 10 11 11 9 12 16 12 9 11 12 13 13 13 14 15 14 14 15 15 15 15 15 15 17 16 15 17 17 18 18 18 18 18 17 18
15 13 12 17 15 15 14 14 12 12 14 13 13 12 14 16 14 13 16 16 16 16 17 16 16 16 14 14 16 15 14 14 16 16 15 18 17 16 16 16 18 18 17
15 11 17 17 14 16 16 16 16 16 16 16 16 16 16 16 15 15 17 17 19 19 19 19 20 20 19 18 16 17 18 18 18 19 19 19 19 20 18 17 18 18 19
Wind_Direction
213 209 213 214 217 217 225 228 219 233 231 234 239 256 254 256 250 248 243 251 257 246 261 264 265 264 258 253 269 268 276 288 281 276 256 266 271 289 301 310 315 299 313
220 216 215 215 217 223 232 232 230 238 235 242 247 245 256 254 257 254 250 255 258 261 261 264 268 270 256 255 258 256 261 268 274 276 269 276 283 287 298 302 319 295 306
218 221 219 221 224 226 222 230 233 237 244 244 248 249 250 254 253 256 258 257 267 271 276 275 271 271 268 269 271 277 274 276 285 270 299 271 288 295 309 280 299 300 300
224 228 227 226 223 225 232 234 234 235 245 246 250 253 255 259 260 265 266 263 262 268 281 280 282 279 276 270 271 279 274 273 278 283 285 278 288 295 301 303 292 283 300
222 225 237 226 228 226 223 229 234 237 233 237 246 246 254 256 259 261 267 261 263 272 277 278 274 281 284 280 276 279 277 271 281 282 283 282 283 285 293 293 285 298 300
206 223 216 229 230 236 233 233 235 240 239 242 249 255 258 264 266 268 265 266 266 267 272 272 276 276 276 277 280 277 272 270 274 276 279 276 281 282 283 278 286 296 294
210 227 213 219 239 234 235 236 239 244 247 251 255 260 264 264 269 271 272 269 268 265 266 270 271 273 270 270 272 274 271 273 276 280 273 274 285 287 281 278 288 286 284
251 246 248 241 240 235 235 239 244 249 251 254 257 263 270 263 262 266 277 273 270 273 273 273 269 271 272 272 271 272 275 277 276 276 278 278 277 276 279 283 285 274 268
252 247 243 239 238 241 241 243 249 252 257 261 265 269 272 269 270 266 271 280 275 268 269 273 277 276 272 274 273 271 274 273 273 275 275 276 277 277 277 276 269 267 265
274 246 240 241 245 243 247 244 252 257 260 263 265 265 270 276 274 272 267 278 270 266 265 268 270 274 270 273 271 273 271 274 276 274 275 277 279 274 270 270 253 253 257
322 254 237 243 244 240 238 244 244 253 259 267 264 266 276 262 268 265 267 264 264 263 266 267 268 268 269 272 273 274 275 278 280 280 275 274 271 268 267 251 250 260 268
273 306 256 235 220 232 219 239 234 235 257 265 268 262 271 269 265 269 270 269 264 264 260 260 268 272 270 272 273 274 281 282 277 272 262 252 250 254 248 250 248 270 278
273 276 353 301 258 236 248 248 298 239 253 257 265 282 275 274 269 267 266 260 258 260 271 271 270 268 259 263 272 273 266 268 260 291 266 288 281 286 285 283 277 272 269
283 257 258 258 314 289 317 225 268 268 263 263 253 265 271 274 271 273 269 262 264 269 262 264 256 250 269 296 278 290 288 288 289 277 267 296 293 280 264 267 266 271 269
274 271 275 269 267 250 237 241 252 258 252 253 253 257 281 270 268 282 300 288 291 282 276 281 290 286 283 275 282 277 282 285 282 277 278 270 296 278 268 287 284 271 272
245 261 266 261 244 223 229 241 229 234 239 262 281 301 278 289 276 286 304 282 263 268 276 289 275 262 279 276 288 286 293 291 292 295 286 275 274 268 277 284 268 261 270
213 222 235 246 252 245 242 238 244 256 263 259 276 283 285 222 287 294 305 300 268 271 280 290 289 278 299 302 292 275 290 292 296 292 294 287 291 293 287 270 261 254 254
246 257 261 267 260 263 264 258 260 266 266 267 273 278 263 261 281 279 279 285 257 254 268 268 269 274 268 274 274 281 276 282 283 282 282 280 275 274 265 260 269 282 271
247 256 256 252 255 264 269 266 263 266 270 273 276 274 278 279 276 274 276 276 264 261 265 260 262 266 269 270 276 278 274 274 281 282 274 268 270 261 260 256 266 263 271
261 266 265 267 270 274 272 269 269 268 269 268 268 269 271 274 275 276 276 271 268 265 264 265 267 267 264 267 271 274 279 282 280 282 274 264 256 258 263 270 267 267 283
262 257 256 254 257 280 280 276 276 278 281 276 276 272 277 276 274 280 284 287 286 287 290 288 280 278 277 277 282 287 286 286 285 281 276 269 268 269 273 272 267 278 285
278 268 265 296 300 297 281 280 279 279 282 289 297 297 293 295 297 295 291 289 289 290 289 291 292 289 287 288 289 287 286 285 286 282 277 274 270 274 275 276 281 284 287
218 242 274 264 230 268 289 282 281 279 287 288 283 279 290 293 294 292 293 292 286 285 292 295 292 290 289 288 290 289 290 287 281 281 281 281 280 280 280 280 283 285 283
235 220 258 251 267 255 267 277 273 263 269 276 291 303 299 286 292 294 293 290 292 294 293 291 288 287 288 287 288 290 289 290 291 283 281 277 276 276 277 279 279 278 278
245 232 256 289 261 263 247 252 249 257 266 266 256 262 283 296 300 298 300 301 301 301 299 296 293 291 290 289 290 292 295 292 289 291 283 282 279 276 275 275 277 275 268
256 253 234 227 250 274 264 260 253 253 255 262 268 265 259 257 270 281 286 287 291 297 299 301 301 298 297 292 289 296 292 286 286 285 284 281 280 280 277 275 274 275 274
Height
3188 3190 3193 3197 3201 3205 3207 3210 3213 3216 3216 3219 3221 3222 3222 3222 3223 3224 3225 3227 3228 3229 3229 3230 3232 3233 3236 3236 3237 3238 3237 3235 3235 3236 3236 3236 3235 3230 3230 3230 3231 3227 3226
3185 3187 3190 3194 3198 3203 3204 3207 3210 3212 3215 3217 3218 3220 3220 3222 3223 3224 3224 3225 3225 3225 3226 3227 3228 3230 3231 3232 3233 3232 3231 3232 3230 3231 3234 3233 3232 3231 3232 3227 3229 3228 3226
3181 3184 3186 3189 3193 3197 3201 3203 3206 3209 3211 3213 3215 3217 3218 3219 3220 3221 3221 3222 3222 3223 3224 3224 3225 3226 3227 3227 3228 3228 3227 3226 3226 3226 3229 3229 3229 3227 3226 3225 3225 3224 3221
3177 3178 3182 3185 3189 3192 3195 3199 3202 3206 3207 3209 3211 3213 3214 3215 3217 3217 3218 3219 3220 3221 3221 3221 3221 3221 3221 3222 3224 3224 3224 3222 3222 3222 3223 3225 3223 3222 3217 3219 3219 3218 3217
3176 3176 3177 3180 3184 3188 3191 3194 3198 3201 3203 3205 3207 3209 3210 3211 3213 3214 3215 3216 3217 3218 3217 3217 3218 3218 3218 3218 3219 3219 3219 3219 3218 3217 3218 3219 3219 3217 3217 3217 3215 3212 3212
3166 3175 3174 3176 3180 3183 3187 3190 3193 3195 3199 3202 3204 3205 3207 3209 3209 3210 3212 3213 3212 3213 3214 3214 3216 3214 3215 3214 3215 3215 3214 3214 3215 3214 3214 3214 3215 3214 3212 3213 3212 3209 3206
3146 3164 3166 3170 3175 3179 3182 3185 3188 3192 3194 3197 3199 3201 3202 3203 3204 3204 3205 3207 3208 3208 3208 3209 3208 3209 3210 3210 3210 3208 3209 3210 3210 3209 3208 3207 3208 3208 3207 3206 3205 3204 3202
3156 3160 3162 3167 3171 3175 3179 3182 3185 3188 3190 3192 3193 3195 3196 3197 3198 3199 3200 3200 3201 3202 3203 3202 3203 3204 3204 3203 3203 3202 3203 3204 3203 3202 3201 3202 3201 3201 3200 3199 3199 3197 3196
3155 3154 3157 3162 3166 3169 3173 3176 3179 3181 3184 3186 3188 3188 3189 3189 3191 3192 3193 3193 3193 3194 3195 3195 3197 3197 3197 3198 3195 3194 3197 3197 3196 3195 3194 3194 3195 3195 3193 3192 3192 3192 3189
3141 3142 3148 3155 3160 3163 3166 3168 3172 3174 3176 3178 3181 3182 3182 3183 3184 3185 3184 3184 3185 3184 3183 3185 3187 3189 3190 3190 3188 3185 3189 3188 3187 3187 3187 3187 3187 3186 3186 3185 3183 3183 3183
3139 3137 3140 3144 3149 3153 3155 3160 3163 3166 3169 3171 3172 3172 3173 3173 3174 3175 3176 3175 3176 3176 3176 3175 3179 3181 3180 3180 3180 3178 3179 3179 3178 3178 3178 3177 3176 3176 3176 3176 3176 3178 3177
3135 3134 3133 3137 3140 3144 3144 3153 3155 3158 3161 3163 3164 3165 3164 3163 3164 3164 3164 3165 3166 3166 3166 3168 3169 3170 3169 3171 3170 3170 3170 3169 3166 3165 3164 3165 3164 3165 3166 3169 3169 3170 3171
3131 3133 3133 3134 3134 3134 3140 3144 3149 3152 3159 3160 3158 3157 3157 3155 3153 3154 3153 3154 3155 3158 3159 3159 3160 3160 3160 3161 3162 3162 3162 3161 3160 3159 3160 3161 3161 3161 3162 3162 3163 3164 3164
3130 3131 3131 3133 3135 3135 3136 3145 3145 3148 3150 3150 3151 3150 3150 3150 3149 3148 3148 3149 3149 3150 3151 3152 3152 3152 3153 3156 3157 3157 3156 3156 3157 3155 3155 3156 3156 3156 3157 3158 3158 3157 3157
3128 3130 3131 3131 3133 3136 3138 3141 3141 3144 3145 3145 3146 3146 3146 3146 3146 3145 3145 3145 3145 3146 3147 3147 3147 3148 3149 3152 3152 3150 3151 3152 3152 3152 3151 3150 3149 3150 3148 3150 3151 3150 3151
3128 3129 3130 3132 3133 3135 3136 3137 3139 3141 3141 3142 3143 3143 3143 3143 3144 3143 3143 3143 3143 3145 3145 3145 3145 3147 3147 3146 3147 3146 3146 3146 3146 3146 3145 3145 3144 3144 3143 3143 3145 3146 3146
3127 3127 3128 3130 3132 3132 3134 3134 3136 3138 3138 3139 3138 3139 3139 3140 3140 3140 3140 3139 3139 3140 3140 3140 3141 3142 3142 3142 3142 3142 3141 3140 3139 3139 3140 3139 3139 3138 3139 3139 3140 3141 3142
3125 3126 3127 3128 3130 3130 3131 3132 3133 3134 3135 3135 3135 3136 3136 3136 3136 3136 3136 3135 3134 3135 3135 3135 3136 3137 3137 3135 3135 3135 3135 3136 3135 3133 3132 3132 3134 3133 3134 3135 3136 3136 3137
3124 3124 3126 3127 3127 3127 3128 3129 3130 3130 3132 3132 3132 3131 3131 3132 3131 3131 3131 3130 3131 3132 3131 3131 3131 3131 3131 3130 3130 3129 3128 3127 3129 3129 3128 3127 3128 3130 3131 3130 3132 3133 3133
3122 3123 3124 3124 3125 3124 3125 3126 3127 3127 3128 3128 3129 3128 3127 3127 3127 3127 3127 3127 3127 3127 3128 3127 3127 3128 3127 3126 3125 3126 3126 3123 3126 3125 3126 3125 3126 3126 3128 3129 3129 3129 3128
3120 3120 3121 3122 3122 3122 3122 3123 3124 3124 3124 3125 3125 3125 3125 3124 3124 3124 3124 3124 3124 3123 3123 3123 3123 3124 3123 3122 3123 3123 3123 3122 3123 3122 3121 3122 3123 3122 3123 3124 3124 3123 3121
3118 3119 3120 3119 3118 3119 3118 3120 3121 3120 3121 3121 3121 3120 3121 3120 3120 3121 3120 3121 3120 3120 3121 3120 3119 3119 3119 3120 3119 3117 3118 3119 3118 3116 3118 3117 3118 3118 3118 3118 3117 3118 3115
3118 3119 3118 3118 3118 3117 3118 3119 3118 3118 3118 3117 3117 3118 3118 3118 3116 3116 3117 3117 3118 3117 3116 3116 3116 3115 3115 3114 3113 3113 3113 3115 3114 3112 3112 3113 3112 3112 3112 3111 3111 3111 3110
3114 3116 3116 3116 3114 3115 3115 3115 3115 3116 3115 3116 3114 3113 3115 3115 3114 3113 3114 3114 3114 3112 3111 3111 3112 3111 3111 3109 3109 3108 3110 3109 3105 3108 3106 3108 3107 3107 3105 3105 3104 3104 3105
3110 3110 3112 3111 3111 3110 3111 3112 3112 3113 3113 3113 3114 3113 3112 3111 3111 3110 3108 3107 3107 3107 3106 3106 3106 3106 3106 3106 3105 3105 3104 3102 3101 3102 3102 3102 3102 3102 3101 3101 3101 3101 3100
3104 3106 3107 3107 3106 3106 3106 3106 3107 3108 3108 3108 3108 3108 3108 3108 3107 3106 3106 3105 3103 3103 3102 3101 3100 3100 3100 3100 3101 3100 3100 3099 3098 3098 3097 3097 3097 3096 3096 3095 3094 3095 3094